Location: Oregon Star Party
(44.2935°N, 120.1332°W)
Time: 02:28:39
(UTC-07:00)

Amateur Radio Satellites - All Passes

Search period start: 15 September 2014 01:58
Search period end: 16 September 2014 01:58
Location: Oregon Star Party, 44.2935°N, 120.1332°W

Satellite Date Start Highest point End Downlink Frequencies (MHz)
Time Altitude Azimuth
ITAMSAT 1 15 Sep 02:18:08 02:22:03 21° 92° (E) 02:25:57 435.822 SSB
Uribyol 2 15 Sep 02:23:26 02:27:42 25° 94° (E) 02:31:58 436.500 FM
AO-Echo 15 Sep 02:39:08 02:43:34 36° 98° (E) 02:48:04 ?
Oscar 19 15 Sep 02:45:55 02:51:08 85° 104° (ESE) 02:56:17 437.125 CW, 437.150 USB
JAS-1B 15 Sep 02:50:25 02:56:03 43° 98° (E) 03:01:24 435.800 - 435.900 CW/SSB
AO-27 15 Sep 02:51:03 02:56:00 42° 98° (E) 03:00:55 436.795 MHz FM
UOSAT-12 15 Sep 03:12:28 03:16:33 29° 317° (NW) 03:20:41 437.025 FM, 437.400 FM
Gurwin Techsat 1B 15 Sep 03:15:06 03:19:56 34° 96° (E) 03:24:43 435.225 FM
Oscar 10/S400 15 Sep 03:16:16 04:22:09 27° 239° (WSW) 07:31:38 145.825 - 145.975 CW/USB, Beacon 145.810 USB
RS-15 15 Sep 03:16:44 03:20:44 13° 95° (E) 03:24:43 29.354 - 29.394 USB, Beacon 29.352 USB
Oscar 16 15 Sep 03:24:05 03:29:00 44° 291° (WNW) 03:33:52 437.025 USB, Beacon 2401.1428
Saudisat 1A 15 Sep 03:26:32 03:30:59 88° 55° (NE) 03:35:23 436.775 MHz
OPAL 15 Sep 03:36:04 03:40:13 25° 61° (ENE) 03:44:25 ?
KITSAT 1 15 Sep 03:52:19 03:59:13 29° 35° (NE) 04:06:03 435.175 FM
TMSAT-1 15 Sep 03:55:14 04:00:29 58° 101° (E) 04:05:41 436.925 FM
ITAMSAT 1 15 Sep 03:56:47 04:01:51 52° 290° (WNW) 04:06:53 435.822 SSB
Uribyol 2 15 Sep 04:02:25 04:07:21 44° 291° (WNW) 04:12:17 436.500 FM
ISS 15 Sep 04:12:36 04:15:05 20° 135° (SE) 04:17:35 145.800 FM
AO-Echo 15 Sep 04:18:13 04:22:13 27° 294° (WNW) 04:26:16 ?
Oscar 19 15 Sep 04:27:00 04:29:46 15° 302° (WNW) 04:32:31 437.125 CW, 437.150 USB
AO-27 15 Sep 04:30:59 04:35:19 27° 296° (WNW) 04:39:38 436.795 MHz FM
AO-7 15 Sep 04:39:22 04:46:52 36° 97° (E) 04:54:19 29.400 - 29.500 MHz
JAS-1B 15 Sep 04:41:35 04:46:33 28° 299° (WNW) 04:51:15 435.800 - 435.900 CW/SSB
Gurwin Techsat 1B 15 Sep 04:55:07 04:59:52 34° 294° (WNW) 05:04:35 435.225 FM
Saudisat 1A 15 Sep 05:08:47 05:09:51 11° 252° (WSW) 05:10:56 436.775 MHz
OPAL 15 Sep 05:13:50 05:18:48 48° 258° (WSW) 05:23:51 ?
RS-15 15 Sep 05:19:50 05:30:38 63° 116° (ESE) 05:41:19 29.354 - 29.394 USB, Beacon 29.352 USB
Uosat F 15 Sep 05:23:04 05:28:05 68° 102° (ESE) 05:33:04 435.120 FM
TMSAT-1 15 Sep 05:36:04 05:39:59 21° 298° (WNW) 05:43:53 436.925 FM
JAS-2 15 Sep 05:36:15 05:39:57 17° 91° (E) 05:43:53 435.800 - 435.900 CW/SSB, 435.910 FM
KITSAT 1 15 Sep 05:47:31 05:55:39 88° 239° (WSW) 06:03:43 435.175 FM
STRAND 1 15 Sep 05:47:51 05:51:46 23° 63° (ENE) 05:55:41 ?
ISS 15 Sep 05:48:14 05:51:32 63° 332° (NNW) 05:54:51 145.800 FM
SO-50 15 Sep 06:16:29 06:18:07 12° 27° (NNE) 06:19:46 436.795 FM
AO-7 15 Sep 06:31:56 06:39:56 55° 297° (WNW) 06:47:54 29.400 - 29.500 MHz
Hamsat 15 Sep 06:33:16 06:37:20 41° 98° (E) 06:41:20 145.90 MHz
Uosat F 15 Sep 07:03:08 07:06:20 17° 300° (WNW) 07:09:32 435.120 FM
JAS-2 15 Sep 07:19:46 07:25:30 78° 286° (WNW) 07:31:57 435.800 - 435.900 CW/SSB, 435.910 FM
STRAND 1 15 Sep 07:25:43 07:30:38 49° 260° (W) 07:35:35 ?
ISS 15 Sep 07:25:55 07:28:42 24° 352° (N) 07:31:30 145.800 FM
RS-15 15 Sep 07:33:01 07:43:27 47° 321° (NW) 07:53:56 29.354 - 29.394 USB, Beacon 29.352 USB
KITSAT 1 15 Sep 07:44:38 07:49:55 19° 258° (WSW) 07:55:12 435.175 FM
SO-50 15 Sep 07:55:17 07:59:54 45° 48° (NE) 08:04:33 436.795 FM
Hamsat 15 Sep 08:09:54 08:13:01 20° 295° (WNW) 08:16:05 145.90 MHz
SO-67 15 Sep 08:16:18 08:19:46 88° 283° (WNW) 08:23:13 435.3500 MHz FM
UOSAT-12 15 Sep 08:20:57 08:23:24 14° 30° (NNE) 08:25:50 437.025 FM, 437.400 FM
AO-7 15 Sep 08:26:56 08:30:56 15° 319° (NW) 08:34:56 29.400 - 29.500 MHz
HO-68 15 Sep 08:49:09 08:54:13 20° 90° (E) 08:59:14 435.675 MHz FM
MaSat-1 15 Sep 08:50:07 08:53:47 21° 104° (ESE) 08:57:29 437.345 MHz
ISS 15 Sep 09:03:15 09:06:08 26° 12° (NNE) 09:09:02 145.800 FM
JAS-2 15 Sep 09:07:16 09:09:52 13° 303° (WNW) 09:12:34 435.800 - 435.900 CW/SSB, 435.910 FM
SO-50 15 Sep 09:36:15 09:40:16 27° 246° (WSW) 09:44:19 436.795 FM
UKube-1 15 Sep 09:37:58 09:40:57 18° 93° (E) 09:43:54 145.840 MHz, 145.915 MHz
RS-15 15 Sep 09:50:46 09:59:27 26° 354° (N) 10:08:15 29.354 - 29.394 USB, Beacon 29.352 USB
UOSAT-12 15 Sep 09:59:50 10:04:32 60° 51° (NE) 10:09:10 437.025 FM, 437.400 FM
MaSat-1 15 Sep 10:25:16 10:30:15 57° 301° (WNW) 10:35:10 437.345 MHz
HO-68 15 Sep 10:35:28 10:42:40 80° 289° (WNW) 10:49:50 435.675 MHz FM
FUNcube-1 15 Sep 10:38:24 10:42:16 26° 94° (E) 10:46:06 145.950 - 145.970 MHz USB
ISS 15 Sep 10:39:51 10:43:11 88° 30° (NNE) 10:46:31 145.800 FM
Oscar 11 15 Sep 11:01:08 11:05:31 81° 284° (WNW) 11:09:51 145.825 FM, Beacon 2401.500 USB
UKube-1 15 Sep 11:13:13 11:17:23 46° 289° (WNW) 11:21:32 145.840 MHz, 145.915 MHz
UOSAT-12 15 Sep 11:41:00 11:44:14 19° 249° (WSW) 11:47:27 437.025 FM, 437.400 FM
JAS-1B 15 Sep 11:51:26 11:53:59 12° 50° (NE) 11:56:25 435.800 - 435.900 CW/SSB
MaSat-1 15 Sep 12:06:18 12:08:05 12° 320° (NW) 12:09:50 437.345 MHz
RS-15 15 Sep 12:06:19 12:16:10 35° 29° (NNE) 12:26:16 29.354 - 29.394 USB, Beacon 29.352 USB
FUNcube-1 15 Sep 12:14:29 12:18:43 36° 291° (WNW) 12:22:54 145.950 - 145.970 MHz USB
ISS 15 Sep 12:17:46 12:19:28 13° 228° (SW) 12:21:10 145.800 FM
Sapphire 15 Sep 12:22:39 12:25:41 15° 104° (ESE) 12:28:44 437.095 MHz 1200 baud AX-25 AFSK
HO-68 15 Sep 12:24:47 12:29:19 18° 309° (NW) 12:33:52 435.675 MHz FM
Oscar 19 15 Sep 12:26:56 12:30:41 21° 61° (ENE) 12:34:27 437.125 CW, 437.150 USB
AO-27 15 Sep 12:35:41 12:37:18 11° 55° (NE) 12:38:55 436.795 MHz FM
PCSat 15 Sep 12:48:22 12:52:54 28° 109° (ESE) 12:57:28 145.825 MHz
Oscar 16 15 Sep 13:03:31 13:08:23 43° 69° (ENE) 13:13:17 437.025 USB, Beacon 2401.1428
JAS-1B 15 Sep 13:34:48 13:43:15 53° 68° (ENE) 13:50:23 435.800 - 435.900 CW/SSB
ITAMSAT 1 15 Sep 13:37:31 13:42:14 38° 67° (ENE) 13:46:59 435.822 SSB
TMSAT-1 15 Sep 13:40:38 13:43:42 16° 58° (ENE) 13:46:46 436.925 FM
Uribyol 2 15 Sep 13:42:44 13:47:36 44° 69° (ENE) 13:52:31 436.500 FM
AO-7 15 Sep 13:52:36 13:56:49 15° 42° (NE) 14:01:00 29.400 - 29.500 MHz
AO-Echo 15 Sep 13:53:46 13:58:26 56° 72° (ENE) 14:03:03 ?
Oscar 10/S400 15 Sep 13:57:48 14:00:29 10° 147° (SSE) 14:03:02 145.825 - 145.975 CW/USB, Beacon 145.810 USB
Sapphire 15 Sep 14:02:59 14:08:23 80° 302° (WNW) 14:13:51 437.095 MHz 1200 baud AX-25 AFSK
Oscar 19 15 Sep 14:04:29 14:09:35 58° 259° (W) 14:14:45 437.125 CW, 437.150 USB
AO-27 15 Sep 14:10:46 14:15:55 75° 73° (ENE) 14:21:06 436.795 MHz FM
RS-15 15 Sep 14:19:00 14:30:09 88° 56° (NE) 14:41:45 29.354 - 29.394 USB, Beacon 29.352 USB
PCSat 15 Sep 14:30:52 14:36:05 47° 308° (NW) 14:41:20 145.825 MHz
Gurwin Techsat 1B 15 Sep 14:37:41 14:42:54 62° 72° (ENE) 14:48:09 435.225 FM
Oscar 16 15 Sep 14:43:36 14:47:53 26° 266° (W) 14:52:13 437.025 USB, Beacon 2401.1428
Uosat F 15 Sep 15:01:52 15:04:46 16° 59° (ENE) 15:07:40 435.120 FM
ITAMSAT 1 15 Sep 15:17:20 15:21:47 29° 265° (W) 15:26:17 435.822 SSB
TMSAT-1 15 Sep 15:17:39 15:22:56 81° 256° (WSW) 15:28:16 436.925 FM
Uribyol 2 15 Sep 15:23:04 15:27:15 25° 266° (W) 15:31:29 436.500 FM
JAS-1B 15 Sep 15:25:51 15:33:54 37° 263° (W) 15:40:53 435.800 - 435.900 CW/SSB
AO-Echo 15 Sep 15:34:33 15:37:34 17° 269° (W) 15:40:35 ?
AO-7 15 Sep 15:39:49 15:47:52 57° 64° (ENE) 15:55:55 29.400 - 29.500 MHz
Sapphire 15 Sep 15:49:08 15:52:42 18° 323° (NW) 15:56:18 437.095 MHz 1200 baud AX-25 AFSK
AO-27 15 Sep 15:53:16 15:56:00 14° 271° (W) 15:58:45 436.795 MHz FM
PCSat 15 Sep 16:18:51 16:20:55 12° 330° (NNW) 16:22:59 145.825 MHz
Gurwin Techsat 1B 15 Sep 16:19:43 16:23:18 18° 269° (W) 16:26:54 435.225 FM
RS-15 15 Sep 16:32:42 16:41:09 26° 258° (WSW) 16:49:53 29.354 - 29.394 USB, Beacon 29.352 USB
Uosat F 15 Sep 16:37:57 16:42:56 75° 257° (WSW) 16:47:58 435.120 FM
TMSAT-1 15 Sep 17:03:09 17:03:41 10° 274° (W) 17:04:14 436.925 FM
OPAL 15 Sep 17:22:08 17:26:59 39° 100° (E) 17:31:45 ?
Hamsat 15 Sep 17:27:58 17:31:58 37° 70° (ENE) 17:35:59 145.90 MHz
AO-7 15 Sep 17:33:33 17:40:58 35° 263° (W) 17:48:25 29.400 - 29.500 MHz
JAS-2 15 Sep 17:34:32 17:39:42 51° 71° (ENE) 17:44:42 435.800 - 435.900 CW/SSB, 435.910 FM
Saudisat 1A 15 Sep 17:36:17 17:38:50 15° 110° (ESE) 17:41:23 436.775 MHz
MaSat-1 15 Sep 18:40:55 18:44:55 46° 57° (ENE) 18:48:20 437.345 MHz
SO-67 15 Sep 18:50:42 18:53:54 36° 72° (ENE) 18:57:07 435.3500 MHz FM
OPAL 15 Sep 19:01:15 19:05:43 30° 297° (WNW) 19:10:09 ?
Hamsat 15 Sep 19:04:37 19:08:01 22° 267° (W) 19:11:27 145.90 MHz
Saudisat 1A 15 Sep 19:13:32 19:17:54 65° 307° (NW) 19:22:19 436.775 MHz
HO-68 15 Sep 19:20:34 19:25:28 20° 53° (NE) 19:30:23 435.675 MHz FM
JAS-2 15 Sep 19:21:18 19:25:09 20° 268° (W) 19:28:56 435.800 - 435.900 CW/SSB, 435.910 FM
STRAND 1 15 Sep 19:34:29 19:39:28 49° 100° (E) 19:44:26 ?
KITSAT 1 15 Sep 20:17:06 20:24:53 54° 114° (ESE) 20:32:41 435.175 FM
MaSat-1 15 Sep 20:19:09 20:21:05 14° 260° (W) 20:22:54 437.345 MHz
Oscar 11 15 Sep 20:25:00 20:26:15 11° 59° (ENE) 20:27:30 145.825 FM, Beacon 2401.500 USB
SO-67 15 Sep 20:25:17 20:27:06 14° 269° (W) 20:28:56 435.3500 MHz FM
UKube-1 15 Sep 20:35:12 20:38:23 20° 64° (ENE) 20:41:34 145.840 MHz, 145.915 MHz
Saudisat 1A 15 Sep 20:56:11 20:58:21 13° 328° (NNW) 21:00:31 436.775 MHz
HO-68 15 Sep 21:05:06 21:12:15 89° 73° (ENE) 21:19:27 435.675 MHz FM
Sapphire 15 Sep 21:06:43 21:10:58 23° 42° (NE) 21:15:12 437.095 MHz 1200 baud AX-25 AFSK
STRAND 1 15 Sep 21:14:21 21:18:21 24° 297° (WNW) 21:22:21 ?
PCSat 15 Sep 21:33:54 21:38:53 35° 48° (NE) 21:43:49 145.825 MHz
FUNcube-1 15 Sep 21:36:39 21:40:11 25° 66° (ENE) 21:43:49 145.950 - 145.970 MHz USB
Oscar 11 15 Sep 21:57:23 22:01:45 86° 257° (WSW) 22:06:10 145.825 FM, Beacon 2401.500 USB
UKube-1 15 Sep 22:10:12 22:14:18 42° 261° (W) 22:18:26 145.840 MHz, 145.915 MHz
KITSAT 1 15 Sep 22:12:53 22:20:30 43° 315° (NW) 22:28:09 435.175 FM
Sapphire 15 Sep 22:49:31 22:54:57 73° 242° (WSW) 23:00:20 437.095 MHz 1200 baud AX-25 AFSK
HO-68 15 Sep 22:56:26 23:00:52 17° 271° (W) 23:05:20 435.675 MHz FM
FUNcube-1 15 Sep 23:12:26 23:16:25 34° 264° (W) 23:20:31 145.950 - 145.970 MHz USB
PCSat 15 Sep 23:17:18 23:22:21 40° 248° (WSW) 23:27:22 145.825 MHz
SO-50 15 Sep 23:51:52 23:56:19 71° 122° (ESE) 00:00:55 436.795 FM
KITSAT 1 16 Sep 00:13:14 00:18:24 18° 343° (NNW) 00:23:34 435.175 FM
UOSAT-12 16 Sep 00:15:39 00:17:16 12° 107° (ESE) 00:18:53 437.025 FM, 437.400 FM
Oscar 16 16 Sep 01:15:26 01:17:44 13° 88° (E) 01:20:01 437.025 USB, Beacon 2401.1428
SO-50 16 Sep 01:34:01 01:37:23 20° 323° (NW) 01:40:50 436.795 FM
ITAMSAT 1 16 Sep 01:51:05 01:52:35 11° 87° (E) 01:54:06 435.822 SSB
